Regional Weather Roundup
Issued by NWS San Angelo, TX

Home | Current Version | Previous Version | Text Only | Print | Product List | Glossary On
Versions: 1 2 3 4 5 6 7 8 9 10 11 12 13 14 15 16 17 18 19 20 21 22 23 24 25 26 27 28 29 30 31 32 33 34 35 36 37 38 39 40 41 42 43 44 45 46 47 48 49 50
000
ASUS44 KSJT 240210
RWRSJT
WEST CENTRAL TEXAS REGIONAL WEATHER ROUNDUP
NATIONAL WEATHER SERVICE SAN ANGELO TX
900 PM CDT TUE SEP 23 2014

NOTE: "FAIR" INDICATES FEW OR NO CLOUDS BELOW 12,000 FEET WITH NO
SIGNIFICANT WEATHER AND/OR OBSTRUCTIONS TO VISIBILITY.

TXZ049-054-064>066-071>073-076>078-098-099-113-114-127-128-139-140-
154-155-168>170-240300
...LOCATIONS ACROSS WEST CENTRAL TEXAS...

CITY           SKY/WX    TMP DP  RH WIND       PRES   REMARKS
SAN ANGELO     MOCLDY    77  64  64 SE8       30.07R
ABILENE        PTCLDY    76  60  57 SE7       30.09R
DYESS AFB      MOCLDY    78  58  50 SE10      30.07R
JUNCTION       CLOUDY    75  66  73 NE3       30.08R
SWEETWATER     MOCLDY    74  65  71 SE7       30.13R
BROWNWOOD      MOCLDY    73  55  53 SE7       30.09R
COLEMAN        NOT AVBL
SONORA         MOCLDY    77  63  61 SE3       30.13R
OZONA          FAIR      77  61  57 SE6       30.12R
BRADY          LGT RAIN  73  57  56 E6        30.09S
$$

TEXAS PANHANDLE/OKLAHOMA PANHANDLE

CITY           SKY/WX    TMP DP  RH WIND       PRES   REMARKS
AMARILLO       CLEAR     72  59  63 S13       30.10R
BORGER         CLEAR     77  59  53 S10       30.05R
CANADIAN       CLEAR     78  63  59 S13       30.01R
DALHART        CLEAR     75  58  55 S20G25    30.08R
DUMAS          CLEAR     72  58  63 S10       30.07R
GUYMON         NOT AVBL
HEREFORD       PTCLDY    70  63  77 S7        30.12R
PAMPA          PTCLDY    74  56  53 S12       30.08R
PERRYTON       PTCLDY    78  58  49 S10       30.03R
$$

SOUTHERN PANHANDLE/SOUTH PLAINS/ROLLING PLAINS

CITY           SKY/WX    TMP DP  RH WIND       PRES   REMARKS
LUBBOCK        MOCLDY    71  61  70 S7        30.11R
SNYDER         MOCLDY    73  66  78 SE6       30.10R
CHILDRESS      PTCLDY    78  64  61 S9        30.05R
SEMINOLE       DRIZZLE   70  66  89 CALM      30.13R
$$

PERMIAN BASIN

CITY           SKY/WX    TMP DP  RH WIND       PRES   REMARKS
MIDLAND        CLOUDY    78  62  57 S9        30.08S
ODESSA         CLOUDY    77  60  55 S8        30.10R
WINK           PTCLDY    79  64  60 CALM      30.06R
$$

FAR WEST/SOUTHWEST MOUNTAINS/TRANS PECOS

CITY           SKY/WX    TMP DP  RH WIND       PRES   REMARKS
ALPINE         MOCLDY    71  56  58 SE6       30.24R
DRYDEN           N/A     85  60  42 SE13      30.05R
EL PASO        PTCLDY    78  59  51 S8        30.09R
FORT STOCKTON  PTCLDY    76  59  55 SE9       30.10R
GUADALUPE PASS MOCLDY    66  60  81 E12       30.25R
MARFA          MOCLDY    66  55  68 E6        30.21S
PECOS          CLEAR     73  63  68 SE6       30.06R
$$

DALLAS/FORT WORTH METROPLEX

CITY           SKY/WX    TMP DP  RH WIND       PRES   REMARKS
DFW AIRPORT    PTCLDY    74  44  34 E7        30.08R
FTW MEACHAM    CLEAR     76  47  35 E6        30.08R
DAL-EXECUTIVE  CLEAR     70  49  47 E5        30.09R
GRAND PRAIRIE  CLEAR     75  44  33 E5        30.10R
ADDISON        PTCLDY    77  41  27 E8        30.10R
MESQUITE       NOT AVBL
LANCASTER      PTCLDY    68  45  43 CALM      30.10R
$$

NORTH CENTRAL TEXAS

CITY           SKY/WX    TMP DP  RH WIND       PRES   REMARKS
SHRMAN/DENISON CLEAR     68  53  59 E6        30.12R
GAINESVILLE    CLEAR     68  49  50 E7        30.12R
BRIDGEPORT     CLEAR     72  44  35 SE5       30.10R
DENTON         CLEAR     71  47  42 SE5       30.09R
WAXAHACHIE     PTCLDY    67  46  45 CALM      30.11R
GRANBURY       PTCLDY    75  52  43 E7        30.10R
$$

WESTERN NORTH TEXAS

CITY           SKY/WX    TMP DP  RH WIND       PRES   REMARKS
WICHITA FALLS  CLEAR     76  50  40 SE14      30.06R
VERNON         CLEAR     79  55  43 SE12      30.06R
BRECKENRIDGE   PTCLDY    78  49  36 SE7       30.08R HAZE
COMANCHE       PTCLDY    72  51  47 SE6       30.09R
$$

CENTRAL AND SOUTH CENTRAL TEXAS

CITY           SKY/WX    TMP DP  RH WIND       PRES   REMARKS
AUSTIN/BERGSTM MOCLDY    73  59  61 E3        30.07R
WACO           PTCLDY    72  52  49 E6        30.08R
HILLSBORO      PTCLDY    71  46  40 E8        30.09S
TEMPLE         PTCLDY    72  50  46 E7        30.08R
KILLEEN-GRAY   PTCLDY    75  52  43 E9        30.09R
FORT HOOD      PTCLDY    75  54  47 E3        30.09R
GEORGETOWN     CLEAR     73  55  53 CALM      30.09R
LAGO VISTA     FAIR      73  55  52 E6        30.10R
SAN MARCOS     MOCLDY    73  54  49 E7        30.08R
NEW BRAUNFELS  MOCLDY    76  56  49 NE9       30.05R
RANDOLPH AFB   MOCLDY    76  55  48 E7        30.06R
SAN ANTONIO    CLOUDY    79  55  43 E8        30.06R
STINSON        CLOUDY    80  54  40 E7        30.03R
PLEASANTON     NOT AVBL
LA GRANGE      MOCLDY    72  67  82 CALM      30.05S
GIDDINGS       MOCLDY    71  57  61 CALM      30.11R
$$

EAST TEXAS

CITY           SKY/WX    TMP DP  RH WIND       PRES   REMARKS
PARIS          CLEAR     64  52  63 E6        30.14R
CLARKSVILLE    NOT AVBL
TYLER          PTCLDY    69  56  62 CALM      30.10R
LONGVIEW       CLEAR     67  51  56 E5        30.10R
PALESTINE      MOCLDY    64  61  87 CALM      30.10R
NACOGDOCHES    MOCLDY    63  54  72 CALM      30.10R
$$

TEXAS HILL COUNTRY AND EDWARDS PLATEAU

CITY           SKY/WX    TMP DP  RH WIND       PRES   REMARKS
LLANO          PTCLDY    72  59  64 CALM      30.12R
HORSESHOE BAY  FAIR      71  57  62 SE3       30.09R
KERRVILLE      MOCLDY    76  59  54 SE7       30.09R
FREDERICKSBRG  PTCLDY    71  58  64 E6        30.10R
ROCKSPRINGS    MOCLDY    73  64  73 CALM      30.12R
HONDO          CLOUDY    83  54  36 E14       30.05R
UVALDE         MOCLDY    81  63  54 E5        30.03R
DEL RIO        CLEAR     84  66  54 E8        30.01R
$$

SOUTHEAST TEXAS

CITY           SKY/WX    TMP DP  RH WIND       PRES   REMARKS
COLLEGE STN    MOCLDY    74  56  53 NE6       30.08R
CALDWELL       CLOUDY    72  54  53 CALM      30.11R
CROCKETT       MOCLDY    68  66  94 CALM      30.11S
BRENHAM        MOCLDY    74  59  60 CALM      30.08R
HUNTSVILLE     CLOUDY    72  57  59 CALM      30.08R
CONROE         CLOUDY    67  62  84 CALM      30.08R
HOUSTON BUSH   MOCLDY    71  60  68 N5        30.06R
HOUSTON HOBBY  MOCLDY    74  58  57 NE8       30.05R
PERLAND        PTCLDY    74  59  59 NE7       30.06R
WHARTON        MOCLDY    69  57  65 NE5       30.06R
$$

THE UPPER TEXAS COAST

CITY           SKY/WX    TMP DP  RH WIND       PRES   REMARKS
ORANGE         PTCLDY    70  61  74 CALM      30.07R
PORT ARTHUR    MOCLDY    73  60  63 NE7       30.05R
GALVESTON      PTCLDY    76  63  64 NE9       30.05R
ANGLETON       MOCLDY    67  62  84 CALM      30.05R
BAY CITY       MOCLDY    69  66  88 NE6       30.04R
$$

TEXAS COASTAL BEND, RIO GRANDE PLAINS DEEP SOUTH TEXAS

CITY           SKY/WX    TMP DP  RH WIND       PRES   REMARKS
VICTORIA       PTCLDY    71  62  73 NE9       30.04R
BEEVILLE       FAIR      76  56  50 E5        30.02R
ROCKPORT       CLEAR     79  66  64 E13       30.02R
PORT ARANSAS   PTCLDY    78  67  68 E12       30.01R
PORT LAVACA    CLEAR     74  63  69 E8        30.03R
CORPUS CHRISTI PTCLDY    78  68  71 E9        30.01R
KINGSVILLE NAS PTCLDY    71  69  93 E8        30.01R
COTULLA        CLOUDY    84  59  42 SE9       30.01R
LAREDO         PTCLDY    80  71  74 S10       30.03R
BROWNSVILLE    LGT RAIN  78  75  90 NE13      29.98R
PORT ISABEL    PTCLDY    78  74  87 NW5       29.98R
HEBBRONVILLE   PTCLDY    78  70  76 SE6       30.03R
MCALLEN        CLEAR     79  73  82 NE6       30.00R
WESLACO        PTCLDY    77  73  85 NE3       29.99R
FALFURRIAS     PTCLDY   N/A N/A N/A E6        30.00S
EDINBURG       PTCLDY    78  72  81 NE5       30.00R
$$



USA.gov is the U.S. government's official web portal to all federal, state and local government web resources and services.